Zurück zum Katalog

O3B MPOWER F8

AktivKommunikationMEO
NORAD 62363·PAYLOAD·🇱🇺 Luxembourg

Gestartet Dec 17, 2024 von Cape Canaveral Space Force Station

Loading…

Nächste Überflüge (nächste 24 Stunden)

TLE

AktuellSource: CelesTrak SupGP

Epoche: Sep 14, 2026, 18:00 UTC

1 62363C 24244B   26257.75000000  .00000000  00000+0  00000+0 0  2575
2 62363   0.0322  36.9523 0005232 126.6690 118.0397  5.00114833    14

Verfolge O3B MPOWER F8 in Echtzeit mit AllMySat

Download on the App Store